Date String (YYYY-MM-DD hh:mm:ss) UTC,Instrument flags,absolute air pressure of the measurement (hPa),sample flow rate (lpm),inlet stack bypass flow (lpm),air temperature of the measurement (°C),ambient temperature measured by the external sensor (°C),aerosol sample conditioner tube jacket temperature (°C),OPC LED temperature (°C),internal box temperature (°C),relative humidity of the measurement (%),span deviation,mass concentration of particles derived from Lorenz-Mie calculation of OPC scattering (μg/m³),mass concentration of particles derived from Lorenz-Mie calculation of OPC scattering (μg/m³),mass concentration of particles derived from Lorenz-Mie calculation of OPC scattering (μg/m³)
DateTimeUTC,F1_M11,P_M11,Q1_M11,Q2_M11,T1_M11,T2_M11,T3_M11,T4_M11,T5_M11,U1_M11,ZSPAN_M11,X0_M11,X2_M11,X1_M11
2024-01-03 06:00:00,SystemResetWarning,0829.9,5.00,000.00,021.7,020.5,000.0,030.2,023.1,11.3,0000.0,0007.51,0003.75,0003.52
2024-01-03 06:01:00,SystemResetWarning,0829.9,5.00,000.00,021.7,020.5,000.0,030.2,023.1,11.2,0000.0,0007.63,0003.75,0003.52
2024-01-03 06:02:00,SystemResetWarning,0829.9,5.00,000.00,021.7,020.5,000.0,030.1,023.1,11.4,0000.0,0007.69,0003.78,0003.53
2024-01-03 06:03:00,SystemResetWarning,0829.9,5.01,000.00,021.7,020.5,000.0,030.1,023.1,11.7,0000.0,0007.65,0003.78,0003.53
2024-01-03 06:04:00,SystemResetWarning,0829.9,5.00,000.00,021.7,020.5,000.0,030.1,023.1,11.8,0000.0,0007.51,0003.77,0003.53
2024-01-03 06:05:00,SystemResetWarning,0829.9,5.00,000.00,021.7,020.5,000.0,030.1,023.1,11.9,0000.0,0007.49,0003.78,0003.52
2024-01-03 06:06:00,SystemResetWarning,0829.9,5.00,000.00,021.7,020.5,000.0,030.1,023.0,11.8,0000.0,0007.35,0003.75,0003.51
2024-01-03 06:07:00,SystemResetWarning,0830.0,5.00,000.00,021.7,020.5,000.0,030.1,023.0,11.8,0000.0,0007.95,0003.76,0003.51
2024-01-03 06:08:00,SystemResetWarning,0829.9,4.99,000.00,021.7,020.5,000.0,030.1,023.0,11.9,0000.0,0008.03,0003.76,0003.52
2024-01-03 06:09:00,SystemResetWarning,0830.0,5.01,000.00,021.7,020.5,000.0,030.1,023.0,11.8,0000.0,0008.05,0003.81,0003.55
2024-01-03 06:10:00,SystemResetWarning,0829.9,5.01,000.00,021.7,020.5,000.0,030.1,023.0,11.6,0000.0,0008.45,0003.86,0003.57
2024-01-03 06:11:00,SystemResetWarning,0829.9,4.99,000.00,021.7,020.4,000.0,030.1,023.0,11.5,0000.0,0008.32,0003.91,0003.59
2024-01-03 06:12:00,SystemResetWarning,0830.0,5.00,000.00,021.6,020.4,000.0,030.1,023.0,11.4,0000.0,0008.38,0003.96,0003.62
2024-01-03 06:13:00,SystemResetWarning,0829.9,4.99,000.00,021.6,020.4,000.0,030.0,023.0,11.7,0000.0,0008.35,0003.99,0003.65
2024-01-03 06:14:00,SystemResetWarning,0830.0,5.01,000.00,021.6,020.4,000.0,030.0,023.0,11.8,0000.0,0008.37,0004.00,0003.67
2024-01-03 06:15:00,SystemResetWarning,0829.9,5.01,000.00,021.6,020.4,000.0,030.0,023.0,11.5,0000.0,0008.50,0004.08,0003.71
2024-01-03 06:16:00,SystemResetWarning,0829.9,5.01,000.00,021.6,020.4,000.0,030.0,023.0,11.6,0000.0,0008.74,0004.21,0003.83
2024-01-03 06:17:00,SystemResetWarning,0829.9,5.00,000.00,021.6,020.4,000.0,030.0,022.9,11.6,0000.0,0008.97,0004.36,0003.95
2024-01-03 06:18:00,SystemResetWarning,0829.9,5.00,000.00,021.6,020.4,000.0,030.0,022.9,11.9,0000.0,0008.97,0004.43,0004.03
2024-01-03 06:19:00,SystemResetWarning,0829.8,5.00,000.00,021.6,020.4,000.0,030.0,022.9,11.9,0000.0,0008.72,0004.48,0004.07
2024-01-03 06:20:00,SystemResetWarning,0829.8,5.00,000.00,021.6,020.4,000.0,030.0,022.9,11.8,0000.0,0009.04,0004.59,0004.14
2024-01-03 06:21:00,SystemResetWarning,0829.8,4.99,000.00,021.6,020.4,000.0,030.0,022.9,11.6,0000.0,0009.02,0004.70,0004.25
2024-01-03 06:22:00,SystemResetWarning,0829.8,5.00,000.00,021.6,020.4,000.0,030.0,022.9,11.7,0000.0,0008.83,0004.75,0004.31
2024-01-03 06:23:00,SystemResetWarning,0829.8,5.00,000.00,021.5,020.4,000.0,030.0,022.9,11.9,0000.0,0008.76,0004.83,0004.39
2024-01-03 06:24:00,SystemResetWarning,0829.8,5.00,000.00,021.5,020.4,000.0,030.0,022.9,12.2,0000.0,0008.76,0004.85,0004.41
2024-01-03 06:25:00,SystemResetWarning,0829.8,5.00,000.00,021.5,020.4,000.0,029.9,022.9,12.2,0000.0,0009.04,0004.93,0004.47
2024-01-03 06:26:00,SystemResetWarning,0829.7,5.00,000.00,021.5,020.4,000.0,029.9,022.9,12.3,0000.0,0009.16,0005.01,0004.54
2024-01-03 06:27:00,SystemResetWarning,0829.7,5.01,000.00,021.5,020.4,000.0,029.9,022.9,12.2,0000.0,0009.24,0005.02,0004.55
2024-01-03 06:28:00,SystemResetWarning,0829.7,5.00,000.00,021.5,020.4,000.0,029.9,022.9,12.0,0000.0,0009.52,0004.99,0004.51
2024-01-03 06:29:00,SystemResetWarning,0829.8,5.00,000.00,021.5,020.4,000.0,029.9,022.9,12.0,0000.0,0009.34,0004.97,0004.48
2024-01-03 06:30:00,SystemResetWarning,0829.7,5.00,000.00,021.5,020.4,000.0,029.9,022.9,11.9,0000.0,0009.12,0004.98,0004.49
2024-01-03 06:31:00,SystemResetWarning,0829.7,5.00,000.00,021.5,020.4,000.0,029.9,022.9,11.6,0000.0,0009.32,0004.99,0004.51
2024-01-03 06:32:00,SystemResetWarning,0829.8,5.01,000.00,021.5,020.3,000.0,029.9,022.9,11.3,0000.0,0009.41,0004.95,0004.50
2024-01-03 06:33:00,SystemResetWarning,0829.7,5.01,000.00,021.5,020.3,000.0,029.9,022.9,11.2,0000.0,0009.42,0004.91,0004.49
2024-01-03 06:34:00,SystemResetWarning,0829.7,5.00,000.00,021.5,020.3,000.0,029.9,022.8,11.1,0000.0,0009.86,0004.92,0004.50
2024-01-03 06:35:00,SystemResetWarning,0829.7,4.99,000.00,021.5,020.3,000.0,029.9,022.8,11.3,0000.0,0009.87,0004.96,0004.55
2024-01-03 06:36:00,SystemResetWarning,0829.8,4.99,000.00,021.5,020.3,000.0,029.9,022.8,11.7,0000.0,0009.86,0005.06,0004.64
2024-01-03 06:37:00,SystemResetWarning,0829.8,5.00,000.00,021.5,020.3,000.0,029.9,022.9,11.7,0000.8,0010.54,0005.12,0004.70
2024-01-03 06:38:00,SystemResetWarning,0829.8,5.00,000.00,021.5,020.3,000.0,029.9,022.8,11.5,0004.3,0010.90,0005.19,0004.77
2024-01-03 06:39:00,SystemResetWarning,0829.8,5.00,000.00,021.5,020.3,000.0,029.9,022.8,11.4,0005.0,0010.63,0005.25,0004.84
2024-01-03 06:40:00,SystemResetWarning,0829.8,5.01,000.00,021.5,020.3,000.0,029.8,022.8,11.4,0004.7,0010.68,0005.34,0004.92
2024-01-03 06:41:00,SystemResetWarning,0829.8,5.00,000.00,021.5,020.3,000.0,029.8,022.8,11.5,0004.0,0010.61,0005.36,0004.94
2024-01-03 06:42:00,SystemResetWarning,0829.8,5.00,000.00,021.5,020.3,000.0,029.8,022.8,11.6,0002.6,0010.36,0005.36,0004.95
2024-01-03 06:43:00,SystemResetWarning,0829.8,5.00,000.00,021.4,020.3,000.0,029.8,022.8,11.8,0002.5,0010.01,0005.34,0004.91
2024-01-03 06:44:00,SystemResetWarning,0829.8,5.00,000.00,021.4,020.3,000.0,029.8,022.8,11.5,0002.2,0010.40,0005.31,0004.85
2024-01-03 06:45:00,SystemResetWarning,0829.8,5.00,000.00,021.4,020.2,000.0,029.8,022.8,11.4,0002.4,0009.77,0005.24,0004.78
2024-01-03 06:46:00,SystemResetWarning,0829.8,5.00,000.00,021.4,020.2,000.0,029.8,022.8,11.4,0001.0,0009.69,0005.14,0004.68
2024-01-03 06:47:00,SystemResetWarning,0829.8,5.00,000.00,021.4,020.2,000.0,029.8,022.7,11.6,0002.8,0010.34,0005.01,0004.54
2024-01-03 06:48:00,SystemResetWarning,0829.7,5.00,000.00,021.4,020.2,000.0,029.8,022.7,11.5,0001.1,0009.69,0004.89,0004.44
2024-01-03 06:49:00,SystemResetWarning,0829.7,5.00,000.00,021.4,020.2,000.0,029.8,022.7,11.7,0000.0,0009.06,0004.80,0004.39
2024-01-03 06:50:00,SystemResetWarning,0829.7,5.00,000.00,021.4,020.2,000.0,029.8,022.7,11.9,0000.0,0008.95,0004.70,0004.29
2024-01-03 06:51:00,SystemResetWarning,0829.7,5.00,000.00,021.4,020.2,000.0,029.8,022.7,12.1,0000.0,0008.77,0004.57,0004.19
2024-01-03 06:52:00,SystemResetWarning,0829.7,5.01,000.00,021.4,020.2,000.0,029.8,022.7,12.3,0000.0,0008.75,0004.47,0004.09
2024-01-03 06:53:00,SystemResetWarning,0829.7,5.01,000.00,021.3,020.2,000.0,029.7,022.7,12.4,0000.0,0008.72,0004.38,0004.01
2024-01-03 06:54:00,SystemResetWarning,0829.7,5.00,000.00,021.4,020.2,000.0,029.7,022.7,12.7,0000.0,0008.74,0004.33,0003.98
2024-01-03 06:55:00,SystemResetWarning,0829.7,5.00,000.00,021.3,020.2,000.0,029.7,022.7,13.0,0000.0,0008.85,0004.44,0004.07
2024-01-03 06:56:00,SystemResetWarning,0829.7,5.00,000.00,021.3,020.2,000.0,029.7,022.7,12.9,0000.0,0008.94,0004.50,0004.11
2024-01-03 06:57:00,SystemResetWarning,0829.7,5.00,000.00,021.3,020.2,000.0,029.7,022.7,12.9,0000.0,0008.98,0004.54,0004.15
2024-01-03 06:58:00,SystemResetWarning,0829.7,4.99,000.00,021.3,020.2,000.0,029.7,022.7,12.8,0000.0,0008.19,0004.52,0004.16
2024-01-03 06:59:00,SystemResetWarning,0829.7,5.00,000.00,021.3,020.2,000.0,029.7,022.7,12.2,0000.0,0008.33,0004.49,0004.13
